ONEWEB-0046, 45447

Orbit data source: Space-Track

ONEWEB-0046, 45447 is a payload satellite owned by One Web (UK) in LEO that was launched on Sat, 21 Mar 2020 UTC via a SOYUZ-2-1B launch vehicle from the Tyuratam Missile And Space Complex (TTMTR). Payload-class satellites include a variety of spacecraft equipped with specific instruments for various scientific and technological missions. These include communications satellites like Starlink; space stations such as the ISS; scientific satellites like the Hubble; Earth observation satellites from companies like Planet Labs, Umbra, and HawkEye 360; GPS; miniature CubeSats for education and research; and military/defense satellites.

Loading next visibility...
Identifier
45447, 2020-020Z
Orbit
LEO
Country
Flag of UKUK
Related business
Manufacturer
One Web
Mission
Operational Commercial Communications
Bus & Motor
ARROW, Unknown motor
Mass
148 kg wet, ~140 kg dry
Launch date (UTC)
2020-03-21 (6 years ago)
Launch vehicle
SOYUZ-2-1B
Launch site
Tyuratam Missile And Space Complex (TTMTR)
Object type
Payload
Rocket body
Debris
Shape & HBR
Trap Box + 2 Pan, 6.7 m
Radar Cross Section
3.464 m², Large (>1 m²)

Expand to show TLE details & history
Last TLE update: 10 hours ago

TLE from 10 hours ago
0 ONEWEB-0046
1 45447U 20020Z   26035.08343930  .00000274  00000-0  73698-3 0  9993
2 45447  87.8824  47.5467 0001958  84.2929 275.8423 13.11418459285163
Epoch: 2026-02-04T02:00Z
TLE epoch observation values (Epoch: 2026-02-04T02:00:09.155Z)
Latitude
0.00006°
Longitude
-116.74655°
Altitude
1,220.415 km
Speed
7.244 km/s
True Right ascension
03h 10m 11s
True Declination
0° 00' 00"
Sunlit
Object was in daylight at epoch
Visualization orbit readout
Latitude
Unknown
Longitude
Unknown
Altitude
Unknown
Speed
Unknown
Apparent Right ascension
Unknown
Apparent Declination
Unknown
Sunlit
N/A
Visualization observer readout
Local Sidereal Time
14:23:22
Azimuth
Unknown
Elevation
Unknown
Doppler factor
Unknown
Orbital elements
Apogee altitude
1,216.282 km
Perigee altitude
1,213.308 km
Semi-major axis
7,592.932 km
Eccentricity
0.0002
Inclination
87.8824°
RAAN
47.5467°
Arg. of periapsis
84.2929°
True anomaly
275.81998°
Mean anomaly
275.8423°
Eccentric anomaly
275.83114°
Mean motion
3.28042 °/min
Orbital period
109.74 mins
BSTAR
0.00073698
Loading maneuver chart data...
Computing Atmospheric mass density...
Loading historical data...
Loading historical data...
Loading historical data...
Loading historical data...
Loading historical data...
Loading historical data...
Loading historical data...

Documentation

Showing up to 5 results
|